Time,TemperatureF,DewpointF,PressureIn,WindDirection,WindDirectionDegrees,WindSpeedMPH,WindSpeedGustMPH,Humidity,HourlyPrecipIn,Conditions,Clouds,dailyrainin,SolarRadiationWatts/m^2,SoftwareType,DateUTC
2013-03-12 00:00:00,65.9,65.9,30.08,NW,306,2.0,3.0,100,0.00,,,0.00,0,Wunderground v.1.15,2013-03-12 10:00:00,
2013-03-12 00:10:00,66.2,66.2,30.08,NW,306,3.0,3.0,100,0.00,,,0.00,0,Wunderground v.1.15,2013-03-12 10:10:00,
2013-03-12 00:15:00,66.4,66.1,30.08,NW,306,2.0,3.0,99,0.00,,,0.00,0,Wunderground v.1.15,2013-03-12 10:15:00,
2013-03-12 00:20:00,66.5,66.2,30.08,NW,306,0.0,0.0,99,0.00,,,0.00,0,Wunderground v.1.15,2013-03-12 10:20:00,
2013-03-12 00:25:00,66.4,66.1,30.07,NW,306,0.0,0.0,99,0.00,,,0.00,0,Wunderground v.1.15,2013-03-12 10:25:00,
2013-03-12 00:30:00,66.1,65.8,30.07,NW,306,0.0,4.0,99,0.00,,,0.00,0,Wunderground v.1.15,2013-03-12 10:30:00,
2013-03-12 00:35:00,66.0,65.7,30.07,NW,307,2.0,4.0,99,0.00,,,0.00,0,Wunderground v.1.15,2013-03-12 10:35:00,
2013-03-12 00:45:00,66.1,65.8,30.05,NW,307,2.0,3.0,99,0.00,,,0.00,0,Wunderground v.1.15,2013-03-12 10:45:00,
2013-03-12 00:50:00,66.1,65.8,30.05,NW,307,2.0,2.0,99,0.00,,,0.00,0,Wunderground v.1.15,2013-03-12 10:50:00,
2013-03-12 00:55:00,66.2,66.2,30.05,NW,307,2.0,2.0,100,0.00,,,0.00,0,Wunderground v.1.15,2013-03-12 10:55:00,
2013-03-12 01:00:00,66.3,66.3,30.06,NW,307,1.0,1.0,100,0.00,,,0.00,0,Wunderground v.1.15,2013-03-12 11:00:00,
2013-03-12 01:10:00,66.5,66.5,30.06,NW,307,1.0,1.0,100,0.00,,,0.00,0,Wunderground v.1.15,2013-03-12 11:10:00,
2013-03-12 01:15:00,66.6,66.6,30.05,NW,307,0.0,1.0,100,0.00,,,0.00,0,Wunderground v.1.15,2013-03-12 11:15:00,
2013-03-12 01:20:00,66.6,66.6,30.04,NW,307,1.0,1.0,100,0.00,,,0.00,0,Wunderground v.1.15,2013-03-12 11:20:00,
2013-03-12 01:25:00,66.4,66.4,30.03,NW,307,1.0,1.0,100,0.00,,,0.00,0,Wunderground v.1.15,2013-03-12 11:25:00,
2013-03-12 01:35:00,66.2,66.2,30.03,NW,307,1.0,3.0,100,0.00,,,0.00,0,Wunderground v.1.15,2013-03-12 11:35:00,
2013-03-12 01:40:00,66.1,66.1,30.04,NW,307,2.0,2.0,100,0.00,,,0.00,0,Wunderground v.1.15,2013-03-12 11:40:00,
2013-03-12 01:45:00,66.2,66.2,30.05,NW,306,3.0,3.0,100,0.00,,,0.00,0,Wunderground v.1.15,2013-03-12 11:45:00,
2013-03-12 01:50:00,66.5,66.5,30.06,NW,306,4.0,5.0,100,0.00,,,0.00,0,Wunderground v.1.15,2013-03-12 11:50:00,
2013-03-12 01:55:00,66.9,66.9,30.06,NW,306,4.0,5.0,100,0.00,,,0.00,0,Wunderground v.1.15,2013-03-12 11:55:00,
2013-03-12 02:00:00,67.2,67.2,30.06,NW,306,3.0,3.0,100,0.00,,,0.00,0,Wunderground v.1.15,2013-03-12 12:00:00,
2013-03-12 02:10:00,67.0,66.7,30.05,NW,306,1.0,2.0,99,0.00,,,0.00,0,Wunderground v.1.15,2013-03-12 12:10:00,
2013-03-12 02:15:00,66.9,66.6,30.05,NW,306,2.0,2.0,99,0.00,,,0.00,0,Wunderground v.1.15,2013-03-12 12:15:00,
2013-03-12 02:20:00,66.8,66.5,30.03,NW,306,1.0,1.0,99,0.00,,,0.00,0,Wunderground v.1.15,2013-03-12 12:20:00,
2013-03-12 02:25:00,66.6,66.3,30.02,NW,306,0.0,1.0,99,0.00,,,0.00,0,Wunderground v.1.15,2013-03-12 12:25:00,
2013-03-12 02:30:00,66.3,66.0,30.01,NW,306,1.0,2.0,99,0.00,,,0.00,0,Wunderground v.1.15,2013-03-12 12:30:00,
2013-03-12 02:35:00,66.1,65.8,30.00,NW,306,2.0,2.0,99,0.00,,,0.00,0,Wunderground v.1.15,2013-03-12 12:35:00,
2013-03-12 02:45:00,65.9,65.9,30.01,NW,309,2.0,3.0,100,0.00,,,0.00,0,Wunderground v.1.15,2013-03-12 12:45:00,
2013-03-12 02:50:00,65.9,65.9,30.01,NW,309,3.0,4.0,100,0.00,,,0.00,0,Wunderground v.1.15,2013-03-12 12:50:00,
2013-03-12 02:55:00,66.1,65.8,30.02,NW,309,3.0,4.0,99,0.00,,,0.00,0,Wunderground v.1.15,2013-03-12 12:55:00,
2013-03-12 03:00:00,66.2,65.9,30.01,NW,310,3.0,3.0,99,0.00,,,0.00,0,Wunderground v.1.15,2013-03-12 13:00:00,
2013-03-12 03:10:00,66.0,65.4,30.00,NW,310,3.0,3.0,98,0.00,,,0.00,0,Wunderground v.1.15,2013-03-12 13:10:00,
2013-03-12 03:15:00,66.0,65.7,30.00,NW,310,3.0,3.0,99,0.00,,,0.00,0,Wunderground v.1.15,2013-03-12 13:15:00,
2013-03-12 03:20:00,66.0,65.7,30.00,NW,310,2.0,2.0,99,0.00,,,0.00,0,Wunderground v.1.15,2013-03-12 13:20:00,
2013-03-12 03:25:00,65.8,65.5,30.00,NW,310,2.0,2.0,99,0.00,,,0.00,0,Wunderground v.1.15,2013-03-12 13:25:00,
2013-03-12 03:30:00,65.7,65.4,30.00,NW,310,1.0,1.0,99,0.00,,,0.00,0,Wunderground v.1.15,2013-03-12 13:30:00,
2013-03-12 03:35:00,65.5,65.2,29.99,NW,310,1.0,2.0,99,0.00,,,0.00,0,Wunderground v.1.15,2013-03-12 13:35:00,
2013-03-12 03:45:00,65.5,65.5,30.01,NW,310,2.0,3.0,100,0.00,,,0.00,0,Wunderground v.1.15,2013-03-12 13:45:00,
2013-03-12 03:50:00,65.8,65.8,30.02,NW,310,3.0,3.0,100,0.00,,,0.00,0,Wunderground v.1.15,2013-03-12 13:50:00,
2013-03-12 03:55:00,66.2,66.2,30.02,NW,309,3.0,3.0,100,0.00,,,0.00,0,Wunderground v.1.15,2013-03-12 13:55:00,
2013-03-12 04:00:00,66.3,66.3,30.02,NW,310,2.0,2.0,100,0.00,,,0.00,0,Wunderground v.1.15,2013-03-12 14:00:00,
2013-03-12 04:10:00,66.2,65.9,30.01,NW,310,0.0,0.0,99,0.00,,,0.00,0,Wunderground v.1.15,2013-03-12 14:10:00,
2013-03-12 04:15:00,66.1,65.8,30.01,NW,310,0.0,0.0,99,0.00,,,0.00,0,Wunderground v.1.15,2013-03-12 14:15:00,
2013-03-12 04:25:00,66.0,66.0,30.01,NW,310,0.0,0.0,100,0.00,,,0.00,0,Wunderground v.1.15,2013-03-12 14:25:00,
2013-03-12 04:30:00,65.8,65.8,30.02,NW,310,0.0,0.0,100,0.00,,,0.00,0,Wunderground v.1.15,2013-03-12 14:30:00,
2013-03-12 04:35:00,65.7,65.7,30.02,NW,310,0.0,0.0,100,0.00,,,0.00,0,Wunderground v.1.15,2013-03-12 14:35:00,
2013-03-12 04:40:00,65.6,65.6,30.02,NW,310,0.0,0.0,100,0.00,,,0.00,0,Wunderground v.1.15,2013-03-12 14:40:00,
2013-03-12 04:45:00,65.5,65.5,30.02,NW,310,0.0,0.0,100,0.00,,,0.00,0,Wunderground v.1.15,2013-03-12 14:45:00,
2013-03-12 04:55:00,65.4,65.4,30.01,NW,310,2.0,3.0,100,0.00,,,0.00,0,Wunderground v.1.15,2013-03-12 14:55:00,
2013-03-12 05:00:00,65.5,65.5,30.02,NW,310,2.0,3.0,100,0.00,,,0.00,0,Wunderground v.1.15,2013-03-12 15:00:00,
2013-03-12 05:10:00,66.0,66.0,30.02,NW,310,2.0,2.0,100,0.00,,,0.00,0,Wunderground v.1.15,2013-03-12 15:10:00,
2013-03-12 05:15:00,66.1,66.1,30.02,NW,310,1.0,2.0,100,0.00,,,0.00,0,Wunderground v.1.15,2013-03-12 15:15:00,
2013-03-12 05:20:00,66.0,65.7,30.01,NW,310,1.0,2.0,99,0.00,,,0.00,0,Wunderground v.1.15,2013-03-12 15:20:00,
2013-03-12 05:25:00,65.8,65.8,30.01,NW,310,1.0,2.0,100,0.00,,,0.00,0,Wunderground v.1.15,2013-03-12 15:25:00,
2013-03-12 05:30:00,65.7,65.7,30.02,NW,310,1.0,2.0,100,0.00,,,0.00,0,Wunderground v.1.15,2013-03-12 15:30:00,
2013-03-12 05:40:00,65.8,65.8,30.02,NW,310,1.0,1.0,100,0.00,,,0.00,0,Wunderground v.1.15,2013-03-12 15:40:00,
2013-03-12 05:45:00,65.9,65.9,30.02,NW,310,0.0,1.0,100,0.00,,,0.00,0,Wunderground v.1.15,2013-03-12 15:45:00,
2013-03-12 05:50:00,66.0,66.0,30.02,NW,310,1.0,2.0,100,0.00,,,0.00,0,Wunderground v.1.15,2013-03-12 15:50:00,
2013-03-12 05:55:00,65.9,65.9,30.02,NW,310,2.0,2.0,100,0.00,,,0.00,0,Wunderground v.1.15,2013-03-12 15:55:00,
2013-03-12 06:00:00,65.9,65.9,30.02,NW,310,1.0,1.0,100,0.00,,,0.00,0,Wunderground v.1.15,2013-03-12 16:00:00,
2013-03-12 06:10:00,66.0,66.0,30.02,NW,310,0.0,0.0,100,0.00,,,0.00,0,Wunderground v.1.15,2013-03-12 16:10:00,
2013-03-12 06:15:00,66.1,66.1,30.02,North,360,1.0,4.0,100,0.00,,,0.00,0,Wunderground v.1.15,2013-03-12 16:15:00,
2013-03-12 06:20:00,66.2,66.2,30.03,NW,310,2.0,2.0,100,0.00,,,0.00,0,Wunderground v.1.15,2013-03-12 16:20:00,
2013-03-12 06:25:00,66.3,66.3,30.03,NW,310,0.0,2.0,100,0.00,,,0.00,0,Wunderground v.1.15,2013-03-12 16:25:00,
2013-03-12 06:30:00,66.4,66.4,30.04,NW,310,1.0,2.0,100,0.00,,,0.00,0,Wunderground v.1.15,2013-03-12 16:30:00,
2013-03-12 06:40:00,66.6,66.3,30.05,NW,310,1.0,1.0,99,0.00,,,0.00,0,Wunderground v.1.15,2013-03-12 16:40:00,
2013-03-12 06:45:00,66.5,66.2,30.05,NW,310,1.0,1.0,99,0.00,,,0.00,0,Wunderground v.1.15,2013-03-12 16:45:00,
2013-03-12 06:50:00,66.4,66.1,30.05,NW,310,1.0,2.0,99,0.00,,,0.00,5,Wunderground v.1.15,2013-03-12 16:50:00,
2013-03-12 06:55:00,66.3,66.0,30.04,NW,310,1.0,2.0,99,0.00,,,0.00,25,Wunderground v.1.15,2013-03-12 16:55:00,
2013-03-12 07:00:00,66.3,66.3,30.04,NW,310,3.0,3.0,100,0.00,,,0.00,28,Wunderground v.1.15,2013-03-12 17:00:00,
2013-03-12 07:10:00,66.5,66.5,30.03,NW,310,1.0,3.0,100,0.00,,,0.00,19,Wunderground v.1.15,2013-03-12 17:10:00,
2013-03-12 07:15:00,66.5,66.5,30.05,NW,310,2.0,3.0,100,0.00,,,0.00,25,Wunderground v.1.15,2013-03-12 17:15:00,
2013-03-12 07:25:00,66.7,66.7,30.05,NW,310,0.0,1.0,100,0.00,,,0.00,25,Wunderground v.1.15,2013-03-12 17:25:00,
2013-03-12 07:30:00,66.8,66.8,30.07,NW,310,0.0,0.0,100,0.00,,,0.00,26,Wunderground v.1.15,2013-03-12 17:30:00,
2013-03-12 07:35:00,67.0,67.0,30.07,NW,310,0.0,1.0,100,0.00,,,0.00,28,Wunderground v.1.15,2013-03-12 17:35:00,
2013-03-12 07:40:00,67.2,67.2,30.07,NW,310,0.0,0.0,100,0.00,,,0.00,35,Wunderground v.1.15,2013-03-12 17:40:00,
2013-03-12 07:50:00,67.3,67.3,30.07,NW,310,0.0,0.0,100,0.00,,,0.00,58,Wunderground v.1.15,2013-03-12 17:50:00,
2013-03-12 07:55:00,67.3,67.3,30.07,NW,310,0.0,0.0,100,0.00,,,0.00,62,Wunderground v.1.15,2013-03-12 17:55:00,
2013-03-12 08:00:00,67.5,67.5,30.07,NW,310,0.0,0.0,100,0.00,,,0.00,77,Wunderground v.1.15,2013-03-12 18:00:00,
2013-03-12 08:10:00,67.8,67.8,30.07,NW,310,0.0,0.0,100,0.00,,,0.00,91,Wunderground v.1.15,2013-03-12 18:10:00,
2013-03-12 08:15:00,68.0,68.0,30.07,NW,310,0.0,0.0,100,0.00,,,0.00,105,Wunderground v.1.15,2013-03-12 18:15:00,
2013-03-12 08:20:00,68.4,68.4,30.06,NW,310,0.0,0.0,100,0.00,,,0.00,132,Wunderground v.1.15,2013-03-12 18:20:00,
2013-03-12 08:30:00,68.7,68.7,30.07,NW,310,0.0,0.0,100,0.00,,,0.00,155,Wunderground v.1.15,2013-03-12 18:30:00,
2013-03-12 08:40:00,69.1,68.8,30.07,NW,310,0.0,0.0,99,0.00,,,0.00,202,Wunderground v.1.15,2013-03-12 18:40:00,
2013-03-12 08:45:00,69.5,69.2,30.07,NW,310,0.0,0.0,99,0.00,,,0.00,223,Wunderground v.1.15,2013-03-12 18:45:00,
2013-03-12 08:50:00,69.8,69.2,30.07,NW,310,0.0,2.0,98,0.00,,,0.00,230,Wunderground v.1.15,2013-03-12 18:50:00,
2013-03-12 09:00:00,70.3,69.1,30.07,NW,310,1.0,1.0,96,0.00,,,0.00,221,Wunderground v.1.15,2013-03-12 19:00:00,
2013-03-12 09:10:00,71.0,69.5,30.08,NW,310,0.0,0.0,95,0.00,,,0.00,246,Wunderground v.1.15,2013-03-12 19:10:00,
2013-03-12 09:15:00,71.3,69.8,30.08,NW,310,1.0,2.0,95,0.00,,,0.00,246,Wunderground v.1.15,2013-03-12 19:15:00,
2013-03-12 09:25:00,71.7,69.9,30.08,NW,310,1.0,1.0,94,0.00,,,0.00,230,Wunderground v.1.15,2013-03-12 19:25:00,
2013-03-12 09:30:00,71.8,70.0,30.08,NW,310,2.0,2.0,94,0.00,,,0.00,262,Wunderground v.1.15,2013-03-12 19:30:00,
2013-03-12 09:40:00,72.1,70.0,30.10,NW,310,1.0,1.0,93,0.00,,,0.00,244,Wunderground v.1.15,2013-03-12 19:40:00,
2013-03-12 09:45:00,72.2,70.1,30.09,NW,310,1.0,2.0,93,0.00,,,0.00,285,Wunderground v.1.15,2013-03-12 19:45:00,
2013-03-12 09:50:00,72.3,69.8,30.09,NW,309,2.0,2.0,92,0.00,,,0.00,229,Wunderground v.1.15,2013-03-12 19:50:00,
2013-03-12 09:55:00,72.4,69.9,30.09,NW,309,2.0,2.0,92,0.00,,,0.00,229,Wunderground v.1.15,2013-03-12 19:55:00,
2013-03-12 10:00:00,72.5,70.0,30.09,NW,309,1.0,4.0,92,0.00,,,0.00,200,Wunderground v.1.15,2013-03-12 20:00:00,
2013-03-12 10:10:00,72.5,70.4,30.10,NW,309,2.0,2.0,93,0.00,,,0.00,151,Wunderground v.1.15,2013-03-12 20:10:00,
2013-03-12 10:20:00,72.6,70.5,30.10,WSW,240,2.0,2.0,93,0.00,,,0.00,135,Wunderground v.1.15,2013-03-12 20:20:00,
2013-03-12 10:30:00,72.7,70.9,30.09,SE,146,3.0,3.0,94,0.00,,,0.00,167,Wunderground v.1.15,2013-03-12 20:30:00,
2013-03-12 10:40:00,72.3,70.5,30.09,SSE,157,5.0,5.0,94,0.00,,,0.00,190,Wunderground v.1.15,2013-03-12 20:40:00,
2013-03-12 10:45:00,72.0,70.2,30.08,SSE,160,5.0,5.0,94,0.00,,,0.00,134,Wunderground v.1.15,2013-03-12 20:45:00,
2013-03-12 10:55:00,72.0,70.5,30.08,SSE,153,4.0,4.0,95,0.00,,,0.00,167,Wunderground v.1.15,2013-03-12 20:55:00,
2013-03-12 11:00:00,72.0,70.5,30.08,SSE,161,3.0,6.0,95,0.00,,,0.00,213,Wunderground v.1.15,2013-03-12 21:00:00,
2013-03-12 11:10:00,72.3,70.8,30.08,SSE,162,3.0,3.0,95,0.00,,,0.00,244,Wunderground v.1.15,2013-03-12 21:10:00,
2013-03-12 11:20:00,72.6,70.8,30.08,SSE,163,1.0,5.0,94,0.00,,,0.00,227,Wunderground v.1.15,2013-03-12 21:20:00,
2013-03-12 11:30:00,72.9,70.8,30.08,SSE,166,2.0,3.0,93,0.00,,,0.00,149,Wunderground v.1.15,2013-03-12 21:30:00,
2013-03-12 11:35:00,72.7,70.6,30.08,SSE,166,3.0,3.0,93,0.00,,,0.00,176,Wunderground v.1.15,2013-03-12 21:35:00,
2013-03-12 11:45:00,72.5,70.4,30.08,South,169,3.0,3.0,93,0.00,,,0.00,47,Wunderground v.1.15,2013-03-12 21:45:00,
2013-03-12 11:55:00,72.2,70.4,30.07,SSE,167,4.0,5.0,94,0.00,,,0.00,95,Wunderground v.1.15,2013-03-12 21:55:00,
2013-03-12 12:00:00,72.0,70.5,30.06,SSE,164,4.0,4.0,95,0.00,,,0.00,83,Wunderground v.1.15,2013-03-12 22:00:00,
2013-03-12 12:10:00,71.7,70.2,30.06,SE,145,4.0,5.0,95,0.00,,,0.00,118,Wunderground v.1.15,2013-03-12 22:10:00,
2013-03-12 12:15:00,71.6,70.1,30.05,SE,146,4.0,5.0,95,0.00,,,0.00,109,Wunderground v.1.15,2013-03-12 22:15:00,
2013-03-12 12:20:00,71.5,70.3,30.05,SE,146,4.0,6.0,96,0.00,,,0.00,84,Wunderground v.1.15,2013-03-12 22:20:00,
2013-03-12 12:30:00,71.5,70.3,30.04,SSE,159,3.0,3.0,96,0.00,,,0.00,77,Wunderground v.1.15,2013-03-12 22:30:00,
2013-03-12 12:35:00,71.4,70.2,30.04,SSE,159,3.0,3.0,96,0.00,,,0.00,84,Wunderground v.1.15,2013-03-12 22:35:00,
2013-03-12 12:45:00,71.5,70.3,30.04,SSE,159,2.0,3.0,96,0.00,,,0.00,134,Wunderground v.1.15,2013-03-12 22:45:00,
2013-03-12 12:50:00,71.4,70.2,30.04,SSE,159,1.0,1.0,96,0.00,,,0.00,123,Wunderground v.1.15,2013-03-12 22:50:00,
2013-03-12 13:00:00,71.5,70.3,30.05,SSE,161,2.0,2.0,96,0.00,,,0.00,107,Wunderground v.1.15,2013-03-12 23:00:00,
2013-03-12 13:10:00,71.5,70.0,30.04,SSE,161,2.0,2.0,95,0.00,,,0.00,69,Wunderground v.1.15,2013-03-12 23:10:00,
2013-03-12 13:20:00,71.6,70.1,30.05,SSE,159,3.0,3.0,95,0.00,,,0.00,91,Wunderground v.1.15,2013-03-12 23:20:00,
2013-03-12 13:25:00,71.6,70.4,30.05,SSE,161,3.0,5.0,96,0.17,,,0.02,100,Wunderground v.1.15,2013-03-12 23:25:00,
2013-03-12 13:35:00,71.2,70.3,30.05,SSE,162,2.0,2.0,97,0.61,,,0.08,91,Wunderground v.1.15,2013-03-12 23:35:00,
2013-03-12 13:40:00,71.1,70.2,30.04,SSE,162,1.0,1.0,97,1.61,,,0.20,56,Wunderground v.1.15,2013-03-12 23:40:00,
2013-03-12 13:45:00,70.8,70.2,30.03,SSE,162,0.0,1.0,98,0.55,,,0.24,39,Wunderground v.1.15,2013-03-12 23:45:00,
2013-03-12 13:55:00,70.7,70.4,30.03,SSE,162,0.0,2.0,99,0.51,,,0.34,98,Wunderground v.1.15,2013-03-12 23:55:00,
2013-03-12 14:00:00,70.5,70.2,30.03,SSE,162,1.0,1.0,99,0.14,,,0.35,153,Wunderground v.1.15,2013-03-13 00:00:00,
2013-03-12 14:10:00,70.5,70.5,30.03,SSE,162,1.0,2.0,100,0.04,,,0.35,148,Wunderground v.1.15,2013-03-13 00:10:00,
2013-03-12 14:15:00,70.6,70.6,30.03,SSE,162,2.0,2.0,100,0.00,,,0.35,120,Wunderground v.1.15,2013-03-13 00:15:00,
2013-03-12 14:25:00,70.6,70.6,30.02,SSE,162,1.0,2.0,100,0.00,,,0.35,144,Wunderground v.1.15,2013-03-13 00:25:00,
2013-03-12 14:35:00,70.7,70.7,30.02,SSE,162,0.0,1.0,100,0.00,,,0.35,141,Wunderground v.1.15,2013-03-13 00:35:00,
2013-03-12 14:40:00,70.5,70.5,30.02,SSE,162,0.0,0.0,100,0.00,,,0.35,53,Wunderground v.1.15,2013-03-13 00:40:00,
2013-03-12 14:45:00,70.4,70.4,30.02,SSE,162,0.0,0.0,100,0.00,,,0.35,18,Wunderground v.1.15,2013-03-13 00:45:00,
2013-03-12 14:50:00,70.4,70.4,30.02,SSE,166,2.0,4.0,100,0.60,,,0.41,67,Wunderground v.1.15,2013-03-13 00:50:00,
2013-03-12 14:55:00,70.0,70.0,30.02,SSE,166,2.0,4.0,100,0.11,,,0.41,100,Wunderground v.1.15,2013-03-13 00:55:00,
2013-03-12 15:00:00,69.9,69.9,30.02,SSE,166,1.0,3.0,100,0.06,,,0.41,40,Wunderground v.1.15,2013-03-13 01:00:00,
2013-03-12 15:10:00,69.8,69.8,30.01,South,178,3.0,3.0,100,0.28,,,0.46,39,Wunderground v.1.15,2013-03-13 01:10:00,
2013-03-12 15:15:00,69.7,69.7,30.01,South,178,1.0,3.0,100,0.11,,,0.46,91,Wunderground v.1.15,2013-03-13 01:15:00,
2013-03-12 15:20:00,69.6,69.6,30.00,South,178,0.0,0.0,100,0.06,,,0.46,76,Wunderground v.1.15,2013-03-13 01:20:00,
2013-03-12 15:25:00,69.6,69.6,30.01,South,178,1.0,1.0,100,0.04,,,0.46,72,Wunderground v.1.15,2013-03-13 01:25:00,
2013-03-12 15:30:00,69.7,69.7,30.01,South,178,0.0,0.0,100,0.00,,,0.46,84,Wunderground v.1.15,2013-03-13 01:30:00,
2013-03-12 15:40:00,69.7,69.7,30.01,South,178,0.0,0.0,100,0.00,,,0.46,62,Wunderground v.1.15,2013-03-13 01:40:00,
2013-03-12 15:50:00,69.7,69.7,30.01,South,178,0.0,0.0,100,0.00,,,0.46,109,Wunderground v.1.15,2013-03-13 01:50:00,
2013-03-12 15:55:00,69.8,69.8,30.02,South,178,0.0,2.0,100,0.00,,,0.46,67,Wunderground v.1.15,2013-03-13 01:55:00,
2013-03-12 16:00:00,69.9,69.9,30.00,South,178,1.0,2.0,100,0.00,,,0.46,40,Wunderground v.1.15,2013-03-13 02:00:00,
2013-03-12 16:15:00,69.8,69.8,30.01,South,178,1.0,1.0,100,0.00,,,0.46,54,Wunderground v.1.15,2013-03-13 02:15:00,
2013-03-12 16:20:00,69.6,69.6,30.01,South,178,1.0,1.0,100,0.00,,,0.46,77,Wunderground v.1.15,2013-03-13 02:20:00,
2013-03-12 16:25:00,69.7,69.7,30.01,South,178,1.0,3.0,100,0.00,,,0.46,79,Wunderground v.1.15,2013-03-13 02:25:00,
2013-03-12 16:30:00,69.8,69.8,30.01,South,178,2.0,3.0,100,0.00,,,0.46,74,Wunderground v.1.15,2013-03-13 02:30:00,
2013-03-12 16:35:00,69.9,69.9,30.03,South,179,2.0,3.0,100,0.00,,,0.46,67,Wunderground v.1.15,2013-03-13 02:35:00,
2013-03-12 16:40:00,69.9,69.9,30.02,South,179,1.0,3.0,100,0.00,,,0.46,51,Wunderground v.1.15,2013-03-13 02:40:00,
2013-03-12 16:45:00,69.9,69.9,30.02,South,179,0.0,0.0,100,0.00,,,0.46,81,Wunderground v.1.15,2013-03-13 02:45:00,
2013-03-12 16:55:00,69.9,69.9,30.02,South,179,0.0,0.0,100,0.00,,,0.46,84,Wunderground v.1.15,2013-03-13 02:55:00,
2013-03-12 17:00:00,69.9,69.9,30.02,South,179,0.0,0.0,100,0.00,,,0.46,74,Wunderground v.1.15,2013-03-13 03:00:00,
2013-03-12 17:10:00,69.8,69.8,30.02,SE,143,2.0,4.0,100,0.00,,,0.46,58,Wunderground v.1.15,2013-03-13 03:10:00,
2013-03-12 17:15:00,69.6,69.6,30.02,NE,44,2.0,4.0,100,0.00,,,0.46,49,Wunderground v.1.15,2013-03-13 03:15:00,
2013-03-12 17:25:00,69.1,69.1,30.03,NE,46,2.0,4.0,100,0.00,,,0.46,35,Wunderground v.1.15,2013-03-13 03:25:00,
2013-03-12 17:30:00,69.0,69.0,30.03,NE,46,2.0,3.0,100,0.00,,,0.46,30,Wunderground v.1.15,2013-03-13 03:30:00,
2013-03-12 17:35:00,69.1,69.1,30.03,NE,46,1.0,3.0,100,0.00,,,0.46,21,Wunderground v.1.15,2013-03-13 03:35:00,
2013-03-12 17:40:00,69.3,69.3,30.03,NE,46,0.0,1.0,100,0.00,,,0.46,11,Wunderground v.1.15,2013-03-13 03:40:00,
2013-03-12 17:45:00,69.2,69.2,30.04,NE,46,0.0,1.0,100,0.00,,,0.46,5,Wunderground v.1.15,2013-03-13 03:45:00,
2013-03-12 17:50:00,69.2,69.2,30.03,NE,46,0.0,2.0,100,0.00,,,0.46,7,Wunderground v.1.15,2013-03-13 03:50:00,
2013-03-12 18:00:00,69.1,69.1,30.03,NE,46,2.0,2.0,100,0.00,,,0.46,5,Wunderground v.1.15,2013-03-13 04:00:00,
2013-03-12 18:05:00,69.1,69.1,30.03,NE,46,1.0,2.0,100,0.00,,,0.46,0,Wunderground v.1.15,2013-03-13 04:05:00,
2013-03-12 18:10:00,69.1,69.1,30.03,NE,46,0.0,0.0,100,0.00,,,0.47,0,Wunderground v.1.15,2013-03-13 04:10:00,
2013-03-12 18:15:00,69.0,69.0,30.03,NE,46,0.0,0.0,100,0.00,,,0.47,0,Wunderground v.1.15,2013-03-13 04:15:00,
2013-03-12 18:20:00,69.0,69.0,30.03,NE,46,0.0,0.0,100,0.05,,,0.48,0,Wunderground v.1.15,2013-03-13 04:20:00,
2013-03-12 18:25:00,69.2,69.2,30.04,NE,46,1.0,2.0,100,0.14,,,0.49,0,Wunderground v.1.15,2013-03-13 04:25:00,
2013-03-12 18:35:00,68.9,68.9,30.05,SSE,167,3.0,3.0,100,0.08,,,0.50,0,Wunderground v.1.15,2013-03-13 04:35:00,
2013-03-12 18:40:00,68.8,68.8,30.05,SSE,167,2.0,2.0,100,0.08,,,0.50,0,Wunderground v.1.15,2013-03-13 04:40:00,
2013-03-12 18:45:00,68.7,68.7,30.05,SSE,167,2.0,2.0,100,0.05,,,0.50,0,Wunderground v.1.15,2013-03-13 04:45:00,
2013-03-12 18:50:00,68.7,68.7,30.04,SSE,167,1.0,1.0,100,0.04,,,0.50,0,Wunderground v.1.15,2013-03-13 04:50:00,
2013-03-12 18:55:00,68.7,68.7,30.05,SSE,167,0.0,1.0,100,0.00,,,0.50,0,Wunderground v.1.15,2013-03-13 04:55:00,
2013-03-12 19:00:00,68.7,68.7,30.06,SSE,167,1.0,2.0,100,0.00,,,0.50,0,Wunderground v.1.15,2013-03-13 05:00:00,
2013-03-12 19:10:00,68.7,68.7,30.06,SSE,167,0.0,0.0,100,0.00,,,0.50,0,Wunderground v.1.15,2013-03-13 05:10:00,
2013-03-12 19:15:00,68.7,68.7,30.06,SSE,167,0.0,0.0,100,0.00,,,0.50,0,Wunderground v.1.15,2013-03-13 05:15:00,
2013-03-12 19:20:00,68.7,68.7,30.06,SSE,167,0.0,0.0,100,0.00,,,0.50,0,Wunderground v.1.15,2013-03-13 05:20:00,
2013-03-12 19:25:00,68.7,68.7,30.07,SSE,167,0.0,0.0,100,0.00,,,0.50,0,Wunderground v.1.15,2013-03-13 05:25:00,
2013-03-12 19:30:00,68.6,68.6,30.07,South,169,1.0,1.0,100,0.00,,,0.50,0,Wunderground v.1.15,2013-03-13 05:30:00,
2013-03-12 19:35:00,68.5,68.5,30.07,South,169,2.0,2.0,100,0.00,,,0.50,0,Wunderground v.1.15,2013-03-13 05:35:00,
2013-03-12 19:40:00,68.4,68.4,30.07,South,169,2.0,2.0,100,0.00,,,0.50,0,Wunderground v.1.15,2013-03-13 05:40:00,
2013-03-12 19:50:00,68.1,68.1,30.08,South,169,1.0,1.0,100,0.00,,,0.50,0,Wunderground v.1.15,2013-03-13 05:50:00,
2013-03-12 19:55:00,67.7,67.7,30.07,SSE,166,1.0,1.0,100,0.00,,,0.50,0,Wunderground v.1.15,2013-03-13 05:55:00,
2013-03-12 20:00:00,67.5,67.5,30.08,SSE,166,1.0,1.0,100,0.00,,,0.50,0,Wunderground v.1.15,2013-03-13 06:00:00,
2013-03-12 20:10:00,67.4,67.4,30.08,SSE,167,0.0,2.0,100,0.00,,,0.50,0,Wunderground v.1.15,2013-03-13 06:10:00,
2013-03-12 20:15:00,67.5,67.5,30.08,SSE,167,1.0,2.0,100,0.00,,,0.50,0,Wunderground v.1.15,2013-03-13 06:15:00,
2013-03-12 20:20:00,67.5,67.5,30.09,SSE,167,2.0,2.0,100,0.00,,,0.50,0,Wunderground v.1.15,2013-03-13 06:20:00,
2013-03-12 20:25:00,67.5,67.5,30.09,SSE,167,2.0,3.0,100,0.00,,,0.50,0,Wunderground v.1.15,2013-03-13 06:25:00,
2013-03-12 20:30:00,67.4,67.4,30.09,SSE,167,2.0,2.0,100,0.00,,,0.50,0,Wunderground v.1.15,2013-03-13 06:30:00,
2013-03-12 20:35:00,67.3,67.3,30.09,SSE,167,1.0,2.0,100,0.00,,,0.50,0,Wunderground v.1.15,2013-03-13 06:35:00,
2013-03-12 20:40:00,67.3,67.3,30.09,SSE,167,1.0,1.0,100,0.00,,,0.50,0,Wunderground v.1.15,2013-03-13 06:40:00,
2013-03-12 20:45:00,67.3,67.3,30.09,South,169,2.0,3.0,100,0.00,,,0.50,0,Wunderground v.1.15,2013-03-13 06:45:00,
2013-03-12 20:50:00,67.3,67.3,30.09,South,169,2.0,2.0,100,0.00,,,0.50,0,Wunderground v.1.15,2013-03-13 06:50:00,
2013-03-12 21:00:00,67.3,67.3,30.09,South,170,2.0,2.0,100,0.00,,,0.50,0,Wunderground v.1.15,2013-03-13 07:00:00,
2013-03-12 21:10:00,67.2,67.2,30.10,SSW,209,2.0,3.0,100,0.00,,,0.50,0,Wunderground v.1.15,2013-03-13 07:10:00,
2013-03-12 21:15:00,67.3,67.3,30.10,SSW,210,3.0,3.0,100,0.00,,,0.50,0,Wunderground v.1.15,2013-03-13 07:15:00,
2013-03-12 21:20:00,67.3,67.3,30.10,NW,320,2.0,2.0,100,0.00,,,0.50,0,Wunderground v.1.15,2013-03-13 07:20:00,
2013-03-12 21:25:00,67.2,67.2,30.10,NW,320,2.0,2.0,100,0.00,,,0.50,0,Wunderground v.1.15,2013-03-13 07:25:00,
2013-03-12 21:30:00,67.3,67.3,30.10,NW,320,2.0,2.0,100,0.00,,,0.50,0,Wunderground v.1.15,2013-03-13 07:30:00,
2013-03-12 21:35:00,67.2,67.2,30.11,NW,320,2.0,2.0,100,0.00,,,0.50,0,Wunderground v.1.15,2013-03-13 07:35:00,
2013-03-12 21:40:00,67.1,67.1,30.11,NW,320,1.0,2.0,100,0.00,,,0.50,0,Wunderground v.1.15,2013-03-13 07:40:00,
2013-03-12 21:45:00,67.1,67.1,30.11,NW,320,2.0,2.0,100,0.00,,,0.50,0,Wunderground v.1.15,2013-03-13 07:45:00,
2013-03-12 21:55:00,67.2,67.2,30.11,NW,320,2.0,5.0,100,0.00,,,0.50,0,Wunderground v.1.15,2013-03-13 07:55:00,
2013-03-12 22:00:00,67.1,67.1,30.11,NW,320,3.0,3.0,100,0.00,,,0.50,0,Wunderground v.1.15,2013-03-13 08:00:00,
2013-03-12 22:10:00,67.1,67.1,30.11,NW,321,2.0,3.0,100,0.00,,,0.50,0,Wunderground v.1.15,2013-03-13 08:10:00,
2013-03-12 22:15:00,67.1,67.1,30.11,NW,323,3.0,5.0,100,0.00,,,0.50,0,Wunderground v.1.15,2013-03-13 08:15:00,
2013-03-12 22:25:00,67.1,67.1,30.11,NW,323,3.0,3.0,100,0.00,,,0.50,0,Wunderground v.1.15,2013-03-13 08:25:00,
2013-03-12 22:30:00,67.1,67.1,30.11,NW,323,2.0,2.0,100,0.00,,,0.50,0,Wunderground v.1.15,2013-03-13 08:30:00,
2013-03-12 22:35:00,67.1,67.1,30.11,NW,323,1.0,2.0,100,0.00,,,0.50,0,Wunderground v.1.15,2013-03-13 08:35:00,
2013-03-12 22:40:00,67.0,67.0,30.11,NW,323,2.0,2.0,100,0.00,,,0.50,0,Wunderground v.1.15,2013-03-13 08:40:00,
2013-03-12 22:45:00,67.0,67.0,30.11,NW,323,2.0,3.0,100,0.00,,,0.50,0,Wunderground v.1.15,2013-03-13 08:45:00,
2013-03-12 22:50:00,67.0,67.0,30.11,NW,323,1.0,1.0,100,0.00,,,0.50,0,Wunderground v.1.15,2013-03-13 08:50:00,
2013-03-12 22:55:00,66.9,66.9,30.11,NW,323,0.0,1.0,100,0.00,,,0.50,0,Wunderground v.1.15,2013-03-13 08:55:00,
2013-03-12 23:00:00,66.9,66.9,30.12,NW,323,1.0,2.0,100,0.00,,,0.50,0,Wunderground v.1.15,2013-03-13 09:00:00,
2013-03-12 23:10:00,66.9,66.9,30.11,NW,323,2.0,2.0,100,0.00,,,0.50,0,Wunderground v.1.15,2013-03-13 09:10:00,
2013-03-12 23:15:00,66.9,66.9,30.11,NW,323,0.0,2.0,100,0.00,,,0.50,0,Wunderground v.1.15,2013-03-13 09:15:00,
2013-03-12 23:20:00,66.9,66.9,30.11,NW,323,0.0,0.0,100,0.00,,,0.50,0,Wunderground v.1.15,2013-03-13 09:20:00,
2013-03-12 23:25:00,66.8,66.8,30.11,NW,323,1.0,3.0,100,0.00,,,0.50,0,Wunderground v.1.15,2013-03-13 09:25:00,
2013-03-12 23:30:00,66.9,66.9,30.11,NW,323,2.0,2.0,100,0.00,,,0.50,0,Wunderground v.1.15,2013-03-13 09:30:00,
2013-03-12 23:35:00,66.8,66.8,30.11,NW,323,1.0,2.0,100,0.00,,,0.50,0,Wunderground v.1.15,2013-03-13 09:35:00,
2013-03-12 23:40:00,66.8,66.8,30.11,NW,323,1.0,1.0,100,0.00,,,0.50,0,Wunderground v.1.15,2013-03-13 09:40:00,
2013-03-12 23:45:00,66.8,66.8,30.11,NW,323,1.0,2.0,100,0.00,,,0.50,0,Wunderground v.1.15,2013-03-13 09:45:00,
2013-03-12 23:50:00,66.8,66.8,30.11,NW,323,2.0,2.0,100,0.00,,,0.50,0,Wunderground v.1.15,2013-03-13 09:50:00,